User: anonymous   Login
Location: Dalton
(34.7700°N, 84.9700°W)
Time: 19:35:11
(UTC-04:00)
Language:

UWE-3 - Orbit

View from above orbital plane
View from above orbital plane
View from above satellite
View from above satellite

Ground track
Ground track

The orbit data is extracted from the following two-line orbital elements,

1 39446U 13066AG  18147.58527605 +.00000196 +00000-0 +33000-4 0  9997
2 39446 097.5938 170.2934 0068795 242.3750 117.0466 14.78201590241484
Epoch (UTC): 27 May 2018 14:02:47
Eccentricity: 0.0068795
inclination: 97.5938°
perigee height: 587 km
apogee height: 683 km
right ascension of ascending node: 170.2934°
argument of perigee: 242.3750°
revolutions per day: 14.78201590
mean anomaly at epoch: 117.0466°
orbit number at epoch: 24148

The dashed part of the orbit path shows where the satellite is in the earth's shadow,  

DLR